[[{"header":{"parameterUnit":"m.s-1","parameterCategory":1,"la1":30.2991,"la2":30.254,"lo1":-89.0895,"lo2":-89.0444,"dy":0.0017,"dx":0.0017,"nx":28,"ny":28,"refTime":"2025-07-28T03:00:00:Z","depth":0,"parameterNumber":2,"parameterNumberName":"U-component_of_WINDS"},"data":[0,0,0,0,0,0,0,0,0,0,0,0,0,0,0,0,0,0,0,0,0,0,0,0,0,0,0,0,0,0,0,0,0,0,0,0,0,0,0,0,0,0,0,0,0,0,0,0,0,0,0,0,0,0,0,0,0,0,0.5134,0.5135,0,0.5204,0.5205,0.5205,0.5225,0.5224,0.5224,0.5223,0.5298,0.53,0.5302,0,0,0,0,0,0,0,0,0,0,0,0,0,0.5022,0.5024,0.5134,0.5135,0.5136,0.5204,0.5205,0.5206,0.5225,0.5224,0.5224,0.5223,0.5297,0.53,0.5302,0,0,0,0,0,0,0,0,0,0,0,0,0,0.5079,0.5025,0.5134,0.5154,0.5156,0.5203,0.5205,0.5206,0.5225,0.5224,0.5224,0.5223,0.5296,0.5299,0.5303,0.5337,0,0,0.5314,0.5315,0,0,0,0,0,0,0,0,0.5076,0.5083,0.515,0.5152,0.5155,0.5205,0.5192,0.525,0.5225,0.5199,0.5223,0.5223,0.5267,0.5273,0.5288,0.534,0.5343,0.5314,0.5316,0.5318,0.5319,0,0,0,0,0,0,0,0.5072,0.5081,0.5162,0.5151,0.5154,0.516,0.5168,0.5203,0.5236,0.5201,0.5203,0.521,0.5269,0.5284,0.529,0.5344,0.5314,0.5317,0.5319,0.532,0.5431,0.5432,0,0,0,0,0,0,0.5064,0.5077,0.516,0.5164,0.5113,0.5163,0.5171,0.519,0.5235,0.5242,0.5211,0.5211,0.5279,0.5285,0.5292,0.5337,0.5317,0.5321,0.5323,0.543,0.5431,0.5432,0,0,0,0,0,0,0.5062,0.5071,0.5157,0.5121,0.5132,0.5165,0.5186,0.5191,0.5207,0.5243,0.5249,0.522,0.5278,0.5287,0.5326,0.5339,0.5322,0.5326,0.5429,0.5431,0.5432,0.5425,0,0,0,0,0,0,0.5058,0.507,0.5082,0.5121,0.5134,0.5188,0.5187,0.5193,0.5212,0.5213,0.5253,0.526,0.5279,0.5321,0.5329,0.5344,0.5328,0.5428,0.543,0.5431,0.5424,0.5425,0.5427,0,0,0,0,0,0.5054,0.5078,0.5083,0.5093,0.515,0.5188,0.5196,0.5217,0.5213,0.5227,0.525,0.5258,0.5336,0.5324,0.5334,0.535,0.5427,0.5429,0.5431,0.5423,0.5425,0.5427,0,0,0,0,0,0,0.504,0.5083,0.5089,0.5125,0.5153,0.5192,0.5209,0.5218,0.5248,0.5247,0.5273,0.5282,0.5319,0.5339,0.5324,0.5387,0.5382,0.5386,0.5373,0.5375,0.5376,0.5371,0.5331,0,0,0,0,0,0.5041,0.5068,0.5104,0.5133,0.5147,0.5175,0.5193,0.5207,0.5237,0.5249,0.5275,0.5305,0.5337,0.5357,0.5388,0.5427,0.5437,0.5443,0.5444,0.5445,0.5449,0.5473,0.5477,0.5438,0.5438,0.5438,0,0,0.5044,0.507,0.5086,0.5131,0.5154,0.5183,0.5185,0.5215,0.5237,0.5254,0.5292,0.5312,0.5348,0.5387,0.5406,0.5405,0.5462,0.5448,0.5448,0.5451,0.5476,0.5479,0.5483,0.5439,0.5439,0.5439,0,0,0.5063,0.5085,0.5112,0.5136,0.5171,0.519,0.5196,0.5234,0.5248,0.5287,0.5301,0.5328,0.5381,0.5406,0.5426,0.5458,0.5467,0.5467,0.5475,0.5499,0.5502,0.5505,0.5518,0.5522,0.547,0.547,0.547,0,0.5062,0.5105,0.5125,0.5155,0.5176,0.5192,0.5221,0.5242,0.5286,0.53,0.5298,0.5367,0.5391,0.5438,0.5446,0.5461,0.5471,0.5463,0.55,0.5503,0.5506,0.5519,0.5523,0.547,0.547,0.547,0.547,0,0.5103,0.5132,0.515,0.5192,0.5214,0.5243,0.527,0.5291,0.5303,0.5323,0.5364,0.5394,0.5432,0.5444,0.5456,0.5494,0.5492,0.5494,0.549,0.5509,0.5522,0.5526,0.547,0.547,0.547,0.547,0,0,0.5114,0.5168,0.5174,0.5194,0.5235,0.5259,0.529,0.5327,0.5345,0.5375,0.5403,0.5448,0.5452,0.5474,0.5489,0.551,0.5535,0.551,0.5512,0.5515,0.5581,0.558,0.5585,0.5542,0.5543,0.5543,0.5579,0,0.514,0.5194,0.5215,0.5261,0.529,0.5306,0.5334,0.5363,0.5383,0.5412,0.5434,0.5467,0.5467,0.5481,0.5502,0.5528,0.5549,0.5525,0.557,0.5571,0.5561,0.5591,0.5589,0.5621,0.5583,0.5584,0.5585,0,0.5177,0.5207,0.5255,0.5294,0.5307,0.5331,0.5368,0.5395,0.5429,0.5442,0.5468,0.5483,0.5518,0.5512,0.5562,0.5545,0.5565,0.558,0.5582,0.5588,0.558,0.5599,0.5631,0.5636,0.5592,0.5592,0.5591,0,0.5182,0.5235,0.5272,0.5288,0.5334,0.5351,0.5371,0.5404,0.5426,0.5459,0.5474,0.551,0.553,0.5559,0.5584,0.5576,0.5633,0.5627,0.5646,0.5646,0.5658,0.5657,0.5695,0.5668,0.5668,0.5668,0.5668,0,0.5209,0.5238,0.5275,0.5297,0.5332,0.5356,0.539,0.5411,0.5441,0.5469,0.5486,0.5513,0.5543,0.5574,0.5594,0.5634,0.5643,0.5656,0.5661,0.5655,0.5653,0.5669,0.5668,0.5669,0.5669,0.5669,0.5669,0,0.5221,0.5246,0.5287,0.5328,0.5339,0.5363,0.5398,0.5422,0.5443,0.5479,0.5489,0.5523,0.5561,0.5588,0.5637,0.565,0.5693,0.5698,0.5682,0.5685,0.5702,0.5701,0.5753,0.5762,0.5727,0.5728,0.5728,0,0.5237,0.526,0.5303,0.5323,0.5343,0.5375,0.5397,0.5423,0.5446,0.5488,0.5507,0.5546,0.5578,0.5638,0.5668,0.5706,0.5712,0.5728,0.5718,0.5712,0.5715,0.5714,0.5717,0.573,0.573,0.573,0.573,0,0.5263,0.5275,0.5306,0.5342,0.5369,0.5398,0.5429,0.5444,0.5476,0.5501,0.554,0.5565,0.5615,0.5654,0.5696,0.5718,0.5731,0.5733,0.574,0.5734,0.5725,0.5732,0.5687,0.5732,0.5732,0.5731,0.5731,0.5731,0.5279,0.5301,0.5335,0.537,0.5396,0.5424,0.5449,0.5473,0.5506,0.5548,0.5562,0.5602,0.5639,0.5695,0.5719,0.5752,0.5752,0.5761,0.5763,0.5765,0.5766,0.5718,0.5759,0.5759,0.5759,0.5759,0.5759,0,0.5307,0.533,0.5362,0.5404,0.5432,0.544,0.5475,0.5498,0.5533,0.5566,0.5597,0.5643,0.5682,0.5715,0.5756,0.5776,0.5783,0.5786,0.5786,0.5791,0.5763,0.5754,0.578,0.578,0.578,0.578,0.578,0.578,0.5325,0.5364,0.538,0.5432,0.5456,0.5495,0.5515,0.5542,0.5568,0.5618,0.565,0.5671,0.5705,0.5748,0.5785,0.5794,0.5809,0.5811,0.5822,0.5795,0.5793,0.579,0.5782,0.5814,0.5814,0.5847,0.5847,0.5848]},{"header":{"parameterUnit":"m.s-1","parameterCategory":1,"la1":30.2991,"la2":30.254,"lo1":-89.0895,"lo2":-89.0444,"dy":0.0017,"dx":0.0017,"nx":28,"ny":28,"refTime":"2025-07-28T03:00:00:Z","depth":0,"parameterNumber":3,"parameterNumberName":"V-component_of_WINDS"},"data":[0,0,0,0,0,0,0,0,0,0,0,0,0,0,0,0,0,0,0,0,0,0,0,0,0,0,0,0,0,0,0,0,0,0,0,0,0,0,0,0,0,0,0,0,0,0,0,0,0,0,0,0,0,0,0,0,0,0,-1.2741,-1.2741,0,-1.2714,-1.2713,-1.2713,-1.2765,-1.2767,-1.2769,-1.277,-1.2738,-1.2736,-1.2733,0,0,0,0,0,0,0,0,0,0,0,0,0,-1.2835,-1.2833,-1.2741,-1.2741,-1.274,-1.2714,-1.2713,-1.2713,-1.2765,-1.2767,-1.2769,-1.2771,-1.2739,-1.2736,-1.2733,0,0,0,0,0,0,0,0,0,0,0,0,0,-1.2799,-1.2832,-1.2741,-1.2763,-1.2765,-1.2714,-1.2713,-1.2713,-1.2764,-1.2767,-1.277,-1.2772,-1.274,-1.2736,-1.2733,-1.2658,0,0,-1.2721,-1.272,0,0,0,0,0,0,0,0,-1.2801,-1.2796,-1.276,-1.2761,-1.2763,-1.2746,-1.2735,-1.2694,-1.2764,-1.2764,-1.277,-1.2773,-1.2738,-1.2735,-1.2724,-1.2656,-1.2655,-1.2721,-1.2719,-1.2717,-1.2716,0,0,0,0,0,0,0,-1.2804,-1.2797,-1.273,-1.2759,-1.2761,-1.2773,-1.2771,-1.2727,-1.2737,-1.2764,-1.2768,-1.2765,-1.2739,-1.2727,-1.2723,-1.2654,-1.2721,-1.2718,-1.2715,-1.2714,-1.2527,-1.2524,0,0,0,0,0,0,-1.2804,-1.2799,-1.2731,-1.2729,-1.2789,-1.277,-1.2767,-1.2749,-1.2738,-1.2738,-1.2762,-1.2767,-1.2732,-1.2728,-1.2722,-1.2637,-1.2717,-1.2714,-1.2711,-1.253,-1.2526,-1.2523,0,0,0,0,0,0,-1.2806,-1.2797,-1.2732,-1.2765,-1.2758,-1.2765,-1.2744,-1.2747,-1.2735,-1.2736,-1.2738,-1.2748,-1.2734,-1.2728,-1.2674,-1.2636,-1.2712,-1.2709,-1.2533,-1.2529,-1.2525,-1.2462,0,0,0,0,0,0,-1.2808,-1.2798,-1.277,-1.2764,-1.2756,-1.2685,-1.2741,-1.2744,-1.2729,-1.2735,-1.2723,-1.2724,-1.2736,-1.268,-1.2671,-1.2632,-1.2706,-1.2536,-1.2531,-1.2526,-1.2468,-1.2457,-1.2447,0,0,0,0,0,-1.2811,-1.2752,-1.2768,-1.276,-1.2721,-1.2683,-1.2678,-1.2694,-1.2725,-1.2697,-1.2699,-1.2724,-1.2641,-1.2674,-1.2664,-1.2624,-1.2539,-1.2532,-1.2526,-1.2473,-1.2459,-1.2447,0,0,0,0,0,0,-1.275,-1.2751,-1.2769,-1.2706,-1.2694,-1.2691,-1.2656,-1.2678,-1.2656,-1.2662,-1.2682,-1.2679,-1.2622,-1.2617,-1.2653,-1.2552,-1.2595,-1.2587,-1.2558,-1.2545,-1.2534,-1.2537,-1.2703,0,0,0,0,0,-1.273,-1.2699,-1.2701,-1.2645,-1.2639,-1.2648,-1.2632,-1.2646,-1.2634,-1.2628,-1.2626,-1.2611,-1.2583,-1.2563,-1.2536,-1.2467,-1.2467,-1.2435,-1.2425,-1.2416,-1.2409,-1.2375,-1.2361,-1.2503,-1.2503,-1.2503,0,0,-1.2686,-1.2683,-1.2662,-1.2633,-1.2625,-1.2593,-1.2644,-1.2607,-1.2583,-1.2622,-1.2573,-1.257,-1.2556,-1.2495,-1.2468,-1.249,-1.237,-1.2408,-1.2401,-1.2399,-1.2367,-1.2353,-1.2341,-1.2499,-1.25,-1.25,0,0,-1.2592,-1.2585,-1.254,-1.2532,-1.252,-1.2528,-1.2517,-1.2511,-1.2512,-1.2463,-1.2492,-1.2464,-1.2413,-1.2403,-1.2391,-1.2295,-1.2318,-1.2285,-1.2231,-1.2197,-1.2186,-1.2176,-1.2144,-1.2132,-1.2278,-1.2277,-1.2277,0,-1.2539,-1.2493,-1.2513,-1.2475,-1.2462,-1.2498,-1.2452,-1.2443,-1.2422,-1.2412,-1.2437,-1.2376,-1.2369,-1.2307,-1.2284,-1.2272,-1.2261,-1.2287,-1.2186,-1.2176,-1.2168,-1.2137,-1.2125,-1.2274,-1.2274,-1.2274,-1.2275,0,-1.243,-1.2397,-1.2361,-1.2344,-1.2327,-1.2284,-1.2298,-1.2278,-1.2293,-1.2298,-1.2249,-1.2242,-1.2216,-1.2202,-1.2215,-1.2143,-1.2157,-1.2183,-1.2227,-1.215,-1.2122,-1.211,-1.2268,-1.227,-1.2271,-1.2272,0,0,-1.2295,-1.2291,-1.2278,-1.2272,-1.2263,-1.2238,-1.2198,-1.2174,-1.2158,-1.2142,-1.211,-1.2067,-1.2093,-1.2079,-1.2092,-1.2062,-1.199,-1.2093,-1.2093,-1.2076,-1.1912,-1.1893,-1.188,-1.2005,-1.2002,-1.2001,-1.1914,0,-1.2203,-1.2137,-1.2155,-1.2088,-1.206,-1.2094,-1.206,-1.205,-1.2054,-1.2029,-1.2032,-1.2003,-1.2038,-1.203,-1.2002,-1.2004,-1.1957,-1.201,-1.1975,-1.1974,-1.198,-1.1865,-1.1844,-1.1763,-1.1903,-1.1901,-1.1899,0,-1.2087,-1.2071,-1.2002,-1.2001,-1.1989,-1.1958,-1.194,-1.1915,-1.1906,-1.191,-1.1897,-1.1916,-1.1877,-1.192,-1.1867,-1.1903,-1.189,-1.1889,-1.1886,-1.1884,-1.1933,-1.1862,-1.1737,-1.1725,-1.1882,-1.1883,-1.1884,0,-1.1999,-1.1959,-1.1914,-1.1907,-1.1903,-1.1881,-1.1878,-1.1871,-1.1857,-1.184,-1.1831,-1.1808,-1.1796,-1.1779,-1.1792,-1.1822,-1.1737,-1.1781,-1.1741,-1.174,-1.1722,-1.1724,-1.1595,-1.171,-1.171,-1.1711,-1.1711,0,-1.1896,-1.1853,-1.1875,-1.1847,-1.18,-1.1821,-1.1774,-1.1775,-1.1769,-1.1742,-1.1769,-1.1743,-1.1761,-1.1736,-1.1745,-1.1701,-1.1695,-1.1698,-1.1702,-1.1697,-1.1697,-1.169,-1.1696,-1.1707,-1.1708,-1.1709,-1.1709,0,-1.179,-1.1803,-1.1756,-1.1757,-1.1757,-1.1723,-1.1724,-1.1698,-1.1704,-1.167,-1.1663,-1.1672,-1.1644,-1.1656,-1.1625,-1.1632,-1.1576,-1.1586,-1.158,-1.1584,-1.1544,-1.1548,-1.1408,-1.1391,-1.1515,-1.1513,-1.1512,0,-1.1724,-1.1692,-1.1691,-1.1676,-1.1673,-1.1647,-1.1634,-1.1653,-1.1637,-1.1625,-1.1601,-1.1576,-1.1558,-1.1512,-1.1516,-1.1494,-1.1504,-1.1457,-1.1501,-1.1498,-1.1507,-1.1509,-1.1507,-1.1448,-1.1447,-1.1446,-1.1445,0,-1.1607,-1.1615,-1.1596,-1.1578,-1.1562,-1.1549,-1.1538,-1.1523,-1.1542,-1.1523,-1.1497,-1.1483,-1.1454,-1.143,-1.1411,-1.1407,-1.1429,-1.1431,-1.1421,-1.1417,-1.1416,-1.1418,-1.1559,-1.1434,-1.1435,-1.1436,-1.1436,-1.1437,-1.152,-1.1495,-1.1492,-1.1469,-1.1464,-1.1453,-1.143,-1.1435,-1.1414,-1.1393,-1.1405,-1.1375,-1.1368,-1.1345,-1.1338,-1.1314,-1.1333,-1.1318,-1.1314,-1.1311,-1.1307,-1.1418,-1.131,-1.1311,-1.1311,-1.1311,-1.1312,0,-1.1407,-1.1407,-1.1386,-1.1372,-1.1354,-1.1378,-1.1368,-1.1352,-1.1325,-1.1317,-1.1299,-1.127,-1.1247,-1.125,-1.1229,-1.1209,-1.1219,-1.1203,-1.1206,-1.1205,-1.129,-1.1302,-1.1196,-1.1196,-1.1196,-1.1196,-1.1196,-1.1196,-1.1346,-1.1306,-1.1314,-1.1271,-1.1271,-1.1243,-1.1236,-1.1227,-1.1221,-1.1188,-1.117,-1.1172,-1.1169,-1.1148,-1.1128,-1.113,-1.1122,-1.1103,-1.1108,-1.1187,-1.1199,-1.121,-1.1221,-1.11,-1.11,-1.1025,-1.1025,-1.1024]}]]